Time,TemperatureF,DewpointF,PressureIn,WindDirection,WindDirectionDegrees,WindSpeedMPH,WindSpeedGustMPH,Humidity,HourlyPrecipIn,Conditions,Clouds,dailyrainin,SolarRadiationWatts/m^2,SoftwareType,DateUTC
2013-09-18 00:05:00,43.0,41.0,-100.00,NNW,327,4.0,7.0,92,0.00,,,0.00,0.000000,,2013-09-18 04:05:00,
2013-09-18 00:14:00,43.0,41.0,-100.00,NNW,327,4.0,7.0,92,0.00,,,0.00,0.000000,,2013-09-18 04:14:00,
2013-09-18 00:24:00,43.0,41.0,-100.00,NNW,327,4.0,7.0,92,0.00,,,0.00,0.000000,,2013-09-18 04:24:00,
2013-09-18 00:54:00,43.0,41.0,-100.00,NW,315,4.0,7.0,92,0.00,,,0.00,0.000000,,2013-09-18 04:54:00,
2013-09-18 01:04:00,43.0,41.0,-100.00,NW,315,4.0,7.0,92,0.00,,,0.00,0.000000,,2013-09-18 05:04:00,
2013-09-18 01:13:00,43.0,41.0,-100.00,NW,315,4.0,7.0,92,0.00,,,0.00,0.000000,,2013-09-18 05:13:00,
2013-09-18 01:23:00,43.0,41.0,-100.00,NW,315,4.0,7.0,92,0.00,,,0.00,0.000000,,2013-09-18 05:23:00,
2013-09-18 01:53:00,43.0,40.0,-100.00,NNW,333,5.0,7.0,90,0.00,,,0.00,0.000000,,2013-09-18 05:53:00,
2013-09-18 02:02:00,43.0,40.0,-100.00,NNW,333,5.0,7.0,90,0.00,,,0.00,0.000000,,2013-09-18 06:02:00,
2013-09-18 02:12:00,43.0,40.0,-100.00,NNW,333,5.0,7.0,90,0.00,,,0.00,0.000000,,2013-09-18 06:12:00,
2013-09-18 02:22:00,43.0,40.0,-100.00,NNW,333,5.0,7.0,90,0.00,,,0.00,0.000000,,2013-09-18 06:22:00,
2013-09-18 02:52:00,44.0,40.0,-100.00,NW,323,5.0,7.0,86,0.00,,,0.00,1.000000,,2013-09-18 06:52:00,
2013-09-18 03:02:00,44.0,40.0,-100.00,NW,323,5.0,7.0,86,0.00,,,0.00,1.000000,,2013-09-18 07:02:00,
2013-09-18 03:12:00,44.0,40.0,-100.00,NW,323,5.0,7.0,86,0.00,,,0.00,1.000000,,2013-09-18 07:12:00,
2013-09-18 03:22:00,44.0,40.0,-100.00,NW,323,5.0,7.0,86,0.00,,,0.00,1.000000,,2013-09-18 07:22:00,
2013-09-18 03:52:00,45.0,40.0,-100.00,NW,325,5.0,7.0,83,0.00,,,0.00,1.000000,,2013-09-18 07:52:00,
2013-09-18 04:02:00,45.0,40.0,-100.00,NW,325,5.0,7.0,83,0.00,,,0.00,1.000000,,2013-09-18 08:02:00,
2013-09-18 04:12:00,45.0,40.0,-100.00,NW,325,5.0,7.0,83,0.00,,,0.00,1.000000,,2013-09-18 08:12:00,
2013-09-18 04:23:00,45.0,40.0,-100.00,NW,325,5.0,7.0,83,0.00,,,0.00,1.000000,,2013-09-18 08:23:00,
2013-09-18 04:52:00,44.0,39.0,-100.00,NW,322,4.0,7.0,84,0.00,,,0.00,1.000000,,2013-09-18 08:52:00,
2013-09-18 05:02:00,44.0,39.0,-100.00,NW,322,4.0,7.0,84,0.00,,,0.00,1.000000,,2013-09-18 09:02:00,
2013-09-18 05:12:00,44.0,39.0,-100.00,NW,322,4.0,7.0,84,0.00,,,0.00,1.000000,,2013-09-18 09:12:00,
2013-09-18 05:22:00,44.0,39.0,-100.00,NW,322,4.0,7.0,84,0.00,,,0.00,1.000000,,2013-09-18 09:22:00,
2013-09-18 05:53:00,44.0,40.0,-100.00,NNW,331,5.0,9.0,85,0.00,,,0.00,1.000000,,2013-09-18 09:53:00,
2013-09-18 06:03:00,44.0,40.0,-100.00,NNW,331,5.0,9.0,85,0.00,,,0.00,1.000000,,2013-09-18 10:03:00,
2013-09-18 06:13:00,44.0,40.0,-100.00,NNW,331,5.0,9.0,85,0.00,,,0.00,1.000000,,2013-09-18 10:13:00,
2013-09-18 06:23:00,44.0,40.0,-100.00,NNW,331,5.0,9.0,85,0.00,,,0.00,1.000000,,2013-09-18 10:23:00,
2013-09-18 06:53:00,44.0,40.0,-100.00,NW,326,4.0,8.0,85,0.00,,,0.00,1.000000,,2013-09-18 10:53:00,
2013-09-18 07:02:00,44.0,40.0,-100.00,NW,326,4.0,8.0,85,0.00,,,0.00,1.000000,,2013-09-18 11:02:00,
2013-09-18 07:12:00,44.0,40.0,-100.00,NW,326,4.0,8.0,85,0.00,,,0.00,1.000000,,2013-09-18 11:12:00,
2013-09-18 07:22:00,44.0,40.0,-100.00,NW,326,4.0,8.0,85,0.00,,,0.00,1.000000,,2013-09-18 11:22:00,
2013-09-18 07:52:00,48.0,41.0,-100.00,NNW,327,4.0,7.0,77,0.00,,,0.00,30.000000,,2013-09-18 11:52:00,
2013-09-18 08:01:00,48.0,41.0,-100.00,NNW,327,4.0,7.0,77,0.00,,,0.00,30.000000,,2013-09-18 12:01:00,
2013-09-18 08:12:00,48.0,41.0,-100.00,NNW,327,4.0,7.0,77,0.00,,,0.00,30.000000,,2013-09-18 12:12:00,
2013-09-18 08:22:00,48.0,41.0,-100.00,NNW,327,4.0,7.0,77,0.00,,,0.00,30.000000,,2013-09-18 12:22:00,
2013-09-18 08:52:00,54.0,44.0,-100.00,NNW,327,5.0,10.0,68,0.00,,,-99.99,189.000000,,2013-09-18 12:52:00,
2013-09-18 09:02:00,54.0,44.0,-100.00,NNW,327,5.0,10.0,68,0.00,,,-99.99,189.000000,,2013-09-18 13:02:00,
2013-09-18 09:11:00,54.0,44.0,-100.00,NNW,327,5.0,10.0,68,0.00,,,-99.99,189.000000,,2013-09-18 13:11:00,